Location: Newark
(22.3145°N, 88.6625°E)
Time: 01:41:54
(UTC+00:00)

Envisat - Pass Details

Date: 26 September 2019
Orbit: 764 x 766 km, 98.1° (Epoch: 18 October)

Event Time Altitude Azimuth Distance (km) Brightness Sun altitude
Rises 12:12:59 0° 160° (SSE) 3,218 6.0 -4.2°
Reaches altitude 10° 12:15:17 10° 157° (SSE) 2,294 5.2 -4.8°
Maximum altitude 12:20:17 63° 76° (ENE) 848 3.0 -5.9°
Drops below altitude 10° 12:25:18 10° 356° (N) 2,301 5.6 -7.1°
Sets 12:27:37 0° 353° (N) 3,229 6.4 -7.6°
